Content
SEND FEEDBACK

Daily
Averages
Monthly
Summary
United States of America

NAPERVILLE, ILLINOIS


Home > North America > United States > Illinois
Elevation: 687 feet     Latitude: 41 49N     Longitude: 088 04W

WEATHER
 
SELECT A DAY
Number of Records: 196,551;   Date Range: 1/1/95 - 7/26/14
 
SHARE

PRINT THIS DATA

[ ← Previous Day ]
WEATHER ALMANAC - APRIL 6, 2013
[ Next Day → ]
[ °C ]   °F
Weather ElementAverageHighLow
Temperature54.2 °F70 °F (2:51 pm)36 °F (1:51 am)
Dewpoint33.7 °F46.9 °F (11:51 pm)23 °F (7:51 am)
Humidity48.6 %77 % (11:44 pm)27 % (3:51 pm)
Barometer29.82 in30.14 in (1:51 am)29.58 in (10:51 pm)
Wind Speed18.6 mph29.9 mph (3:51 pm)
Wind Gust48.3 mph (11:02 pm)
Weather ElementAverage
Visibility10 mi
Wind DirectionS (174.4 °)

Weather ElementTotal
Precipitation0.08 in
Heating Degree Days12 (Base 65)
Growing Degree Days3 (Base 50)
Averaged from 25 records on April 6, 2013
WEATHER CONDITIONS BREAKOUT
WIND DIRECTION BREAKOUT
WEATHER BY HOUR - APRIL 6, 2013
[ °C ]   °F
Local TimeTemperatureDewpointHumidityBarometerVisibilityWind DirectionWind SpeedGust SpeedPrecipitationEventsConditions
1:51 AM36.0 °F27.0 °F70 %30.14 in10.0 miEast (90°)11.5 mphOvercast
2:51 AM36.0 °F28.0 °F73 %30.10 in10.0 miESE (110°)10.4 mphMostly Cloudy
3:51 AM37.0 °F25.0 °F62 %30.07 in10.0 miESE (120°)9.2 mphOvercast
4:51 AM37.9 °F25.0 °F60 %30.06 in10.0 miESE (120°)10.4 mphOvercast
5:51 AM37.0 °F26.1 °F65 %30.06 in10.0 miSE (130°)11.5 mphOvercast
6:51 AM37.9 °F25.0 °F60 %30.05 in10.0 miSE (140°)8.1 mphOvercast
7:51 AM42.1 °F23.0 °F47 %30.02 in10.0 miSSE (150°)13.8 mphOvercast
8:51 AM46.9 °F24.1 °F41 %29.99 in10.0 miSSE (160°)17.3 mph25.3 mphOvercast
9:51 AM51.1 °F28.0 °F41 %29.95 in10.0 miSouth (180°)20.7 mph27.6 mphOvercast
10:51 AM53.1 °F28.9 °F40 %29.92 in10.0 miSouth (180°)20.7 mph27.6 mphOvercast
11:51 AM57.0 °F32.0 °F39 %29.88 in10.0 miSouth (180°)23.0 mph33.4 mph0.00 inRainLight Rain
12:51 PM64.0 °F33.1 °F31 %29.81 in10.0 miSouth (180°)26.5 mph38.0 mph0.00 inOvercast
1:51 PM68.0 °F35.1 °F30 %29.74 in10.0 miSouth (180°)27.6 mph41.4 mphMostly Cloudy
2:51 PM70.0 °F35.1 °F28 %29.71 in10.0 miSouth (190°)27.6 mph41.4 mphOvercast
3:51 PM69.1 °F34.0 °F27 %29.70 in10.0 miSSW (200°)29.9 mph40.3 mphOvercast
4:51 PM63.0 °F41.0 °F45 %29.67 in10.0 miSSW (200°)28.8 mph41.4 mph0.00 inRainLight Rain
5:51 PM62.1 °F43.0 °F50 %29.65 in10.0 miSouth (180°)20.7 mph29.9 mph0.00 inRainLight Rain
6:51 PM64.0 °F41.0 °F43 %29.63 in10.0 miSouth (190°)17.3 mph27.6 mph0.00 inOvercast
7:51 PM64.4 °F37.4 °F37 %29.63 in10.0 miSSW (200°)20.7 mph33.4 mphOvercast
8:51 PM64.0 °F37.0 °F37 %29.63 in10.0 miSSW (200°)16.1 mph24.2 mph0.00 inOvercast
9:51 PM61.0 °F41.0 °F48 %29.61 in10.0 miSSW (210°)18.4 mph24.2 mph0.00 inOvercast
10:51 PM63.0 °F39.0 °F41 %29.58 in10.0 miSSW (200°)23.0 mph33.4 mph0.00 inOvercast
11:02 PM62.6 °F41.0 °F45 %29.63 in10.0 miWSW (240°)23.0 mph48.3 mph0.00 inRain-ThunderstormLight Thunderstorms and Rain
11:44 PM53.6 °F46.4 °F77 %29.62 in10.0 miSW (220°)15.0 mph23.0 mph0.04 inRainLight Rain
11:51 PM54.0 °F46.9 °F77 %29.62 in10.0 miSSW (210°)15.0 mph21.9 mph0.04 inRainLight Rain
Hourly data recorded from KORD, located miles away from Naperville, Illinois







STORIES FROM OUR PARTNERS